Weather History for Nassau, Bahamas

Change the Weather History Date:

Thursday, September 5, 2013

  Actual Average Record
Temperature  
Mean Temperature 84 °F -  
Max Temperature 90 °F 87 °F 93 °F (1996)
Min Temperature 79 °F 74 °F 37 °F (1996)
Cooling Degree Days 20    
Growing Degree Days 34 (Base 50)    
Moisture  
Dew Point 76 °F    
Average Humidity 75    
Maximum Humidity 84    
Minimum Humidity 55    
Precipitation  
Precipitation 0.04 in 0.23 in - ()
Sea Level Pressure  
Sea Level Pressure 30.03 in    
Wind  
Wind Speed 5 mph ()    
Max Wind Speed 12 mph    
Max Gust Speed -    
Visibility 6.9 miles    
Events Rain    
Averages and records for this station are not official NWS values.
T = Trace of Precipitation, MM = Missing Value Source: Averaged Metar Reports

Daily Weather History Graph

Daily Weather History Graph

Search for Another Location

Airport:

Trip Planner

Search our weather history database for the weather conditions in past years. The results will help you decide how hot, cold, wet, or windy it might be!

Date:

Astronomy

Sep. 05, 2013 Rise Set
Actual Time 6:52 AM EDT 7:24 PM EDT
Civil Twilight 6:29 AM EDT 7:47 PM EDT
Nautical Twilight 6:02 AM EDT 8:14 PM EDT
Astronomical Twilight 5:34 AM EDT 8:41 PM EDT
Moon 6:55 AM EDT (9/5) 7:24 PM EDT (9/5)
Length of Visible Light 13h 18m
Length of Day
12h 31m
New Moon, 0% of the Moon is Illuminated
Sep 5
New Moon
Sep 12
First Quarter
Sep 19
Full
Sep 26
Last Quarter
Oct 4
New

Hourly Weather History & Observations

Time (EDT) Temp. Heat Index Dew Point Humidity Pressure Visibility Wind Dir Wind Speed Gust Speed Precip Events Conditions
12:00 AM 80.6 °F 86.2 °F 75.2 °F 84% 30.08 in 6.2 mi Variable 2.3 mph - N/A   Scattered Clouds
1:00 AM 80.6 °F 86.2 °F 75.2 °F 84% 30.06 in 6.2 mi Variable 2.3 mph - N/A   Partly Cloudy
2:00 AM 82 °F - 77 °F 81% 30.03 in 9 mi East 3.5 mph - -   Scattered Clouds
2:00 AM 82.4 °F 90.9 °F 77.0 °F 84% 30.03 in 6.2 mi East 3.5 mph - N/A   Partly Cloudy
7:00 AM 80.6 °F 86.2 °F 75.2 °F 84% 30.03 in 6.2 mi East 3.5 mph - N/A   Scattered Clouds
8:00 AM 82 °F - 77 °F 82% 30.04 in 9 mi East 3.5 mph - -   Scattered Clouds
8:00 AM 82.4 °F 90.9 °F 77.0 °F 84% 30.04 in 6.2 mi East 3.5 mph - N/A   Partly Cloudy
9:00 AM 84.2 °F 90.9 °F 73.4 °F 70% 30.04 in 6.2 mi East 5.8 mph - N/A   Scattered Clouds
10:00 AM 89.6 °F 98.2 °F 73.4 °F 59% 30.06 in 6.2 mi East 9.2 mph - N/A   Scattered Clouds
11:00 AM 88 °F - 78 °F 65% 30.07 in 9 mi East 8.1 mph - -   Partly Cloudy
11:00 AM 87.8 °F 99.7 °F 77.0 °F 70% 30.06 in 6.2 mi East 8.1 mph - N/A   Scattered Clouds
12:00 PM 87.8 °F 97.6 °F 75.2 °F 66% 30.06 in 6.2 mi East 6.9 mph - N/A   Scattered Clouds
1:00 PM 91.4 °F 100.1 °F 73.4 °F 55% 30.05 in 6.2 mi East 9.2 mph - N/A   Scattered Clouds
2:00 PM 90 °F - 77 °F 58% 30.05 in 9 mi East 11.5 mph - -   Partly Cloudy
2:00 PM 89.6 °F 102.2 °F 77.0 °F 66% 30.04 in 6.2 mi East 11.5 mph - N/A   Scattered Clouds
3:00 PM 86.0 °F 95.1 °F 75.2 °F 70% 30.01 in 6.2 mi East 6.9 mph - N/A   Mostly Cloudy
4:00 PM 84.2 °F 90.9 °F 73.4 °F 70% 29.99 in 6.2 mi East 9.2 mph - N/A Rain Light Rain Showers
5:00 PM 87 °F - - %  in 9 mi ENE 5.8 mph - -  
5:00 PM 86.0 °F 99.3 °F 78.8 °F 79% 29.98 in 6.2 mi ENE 5.8 mph - N/A   Mostly Cloudy
6:00 PM 84.2 °F 94.1 °F 77.0 °F 79% 29.98 in 6.2 mi ENE 3.5 mph - N/A   Mostly Cloudy
7:00 PM 84.2 °F 94.1 °F 77.0 °F 79% 29.98 in 6.2 mi ENE 5.8 mph - N/A   Mostly Cloudy
8:00 PM 84 °F - 79 °F 80% 29.99 in 9 mi East 5.8 mph - -   Partly Cloudy
8:00 PM 84.2 °F 96.1 °F 78.8 °F 84% 29.98 in 6.2 mi East 5.8 mph - N/A   Mostly Cloudy
9:00 PM 82.4 °F 88.2 °F 73.4 °F 74% 30.01 in 6.2 mi ENE 4.6 mph - N/A   Mostly Cloudy
10:00 PM 82.4 °F 88.2 °F 73.4 °F 74% 30.03 in 6.2 mi ENE 5.8 mph - N/A   Mostly Cloudy
11:00 PM 83 °F - 78 °F 79% 30.05 in 9 mi East 5.8 mph - -   Scattered Clouds
11:00 PM 84.2 °F 94.1 °F 77.0 °F 79% 30.05 in 6.2 mi East 5.8 mph - N/A   Mostly Cloudy